User: anonymous   Login
Location: Unspecified
(0.0000°N, 0.0000°E)
Time: 23:17:06
(UTC+00:00)
Language:

NOAA 11 - Orbit

View from above orbital plane
View from above orbital plane
View from above satellite
View from above satellite

Ground track
Ground track

The orbit data is extracted from the following two-line orbital elements,

1 19531U 88089A   18015.78895404 -.00000015 +00000-0 +13742-4 0  9990
2 19531 098.5223 070.2203 0011900 143.3981 216.8009 14.15220615512577
Epoch (UTC): 15 January 2018 18:56:05
Eccentricity: 0.0011900
inclination: 98.5223°
perigee height: 833 km
apogee height: 850 km
right ascension of ascending node: 70.2203°
argument of perigee: 143.3981°
revolutions per day: 14.15220615
mean anomaly at epoch: 216.8009°
orbit number at epoch: 51257

The dashed part of the orbit path shows where the satellite is in the earth's shadow,  

DLR